Regional Weather Roundup
Issued by NWS

Home | Current Version | Previous Version | Graphics & Text | Print | Product List | Glossary On
Versions: 1 2 3 4 5 6 7 8 9 10 11 12 13 14 15 16 17 18 19 20 21 22 23 24 25 26 27 28 29 30 31 32 33 34 35 36 37 38 39 40 41 42 43 44 45 46 47 48 49 50
000
ASUS45 KBOU 260910
RWRCO

WEATHER ROUNDUP FOR COLORADO
NATIONAL WEATHER SERVICE DENVER/BOULDER CO
300 AM MDT MON SEP 26 2016

NOTE: "FAIR" INDICATES FEW OR NO CLOUDS BELOW 12000 FEET WITH NO
SIGNIFICANT WEATHER AND/OR OBSTRUCTIONS TO VISIBILITY.

COZ001>005-013-030-031-261000-
...NORTHWEST COLORADO...

CITY           SKY/WX    TMP DP  RH WIND       PRES   REMARKS
CRAIG          FAIR      33  30  88 CALM      30.51S
HAYDEN         FAIR      37  28  70 E9        30.50F
MEEKER         FAIR      35  33  92 E5        30.51S WCI  31
MOUNT WERNER   NOT AVBL
STEAMBOAT SPGS FAIR      35  32  91 CALM      30.52S
WALDEN           N/A     27  23  86 SE7       30.56F WCI  19
$$

COZ006>008-011-261000-
...WEST CENTRAL VALLEYS...

CITY           SKY/WX    TMP DP  RH WIND       PRES   REMARKS
GRAND JUNCTION FAIR      50  38  63 SE8       30.40S
MONTROSE       FAIR      45  36  70 SE10      30.47S
EAGLE          FAIR      36  30  80 E3        30.55S
RIFLE          FAIR      43  39  86 SE5       30.46F
DELTA          NOT AVBL
NUCLA          FAIR      45  34  65 E9        30.47F
$$

COZ017>023-064>068-261000-
...SOUTHWEST COLORADO...

CITY           SKY/WX    TMP DP  RH WIND       PRES   REMARKS
DURANGO        FAIR      41  35  79 CALM      30.47R
CORTEZ         FAIR      40  35  83 CALM      30.43R
PAGOSA SPRINGS FAIR      38  33  82 CALM      30.52S
TELLURIDE      FAIR      40  36  86 SE5       30.58F
WOLF CREEK PAS FAIR      36  27  69 MISG      30.73S
$$

COZ009-010-012-014-032>034-037-058>063-261000-
...CENTRAL COLORADO...

CITY           SKY/WX    TMP DP  RH WIND       PRES   REMARKS
ASPEN          FAIR      35  29  78 CALM      30.53F
BUENA VISTA    FAIR      34  25  69 CALM      30.57S
COPPER MTN     FAIR      41  19  42 CALM      30.70F
BERTHOUD PASS  FAIR      28  14  54 N14       30.70F WCI  17
COTTONWOOD PAS FAIR      43  28  56 CALM      30.62F
GUNNISON       FAIR      32  28  86 CALM      30.55S
KREMMLING      FAIR      32  25  74 CALM      30.57S
LEADVILLE      FAIR      28  21  75 CALM      30.61F
MONARCH PASS   FAIR      34  27  75 E5        30.79F WCI  30
SALIDA         FAIR      41  30  65 CALM      30.63F
SUNLIGHT       FAIR      37  32  81 NE5       30.67F
WILKERSON PASS FAIR      32  27  80 MISG      30.69F
$$

COZ069>075-261000-
...SAN LUIS VALLEY/SANGRE DE CRISTO MOUNTAINS...

CITY           SKY/WX    TMP DP  RH WIND       PRES   REMARKS
ALAMOSA        FAIR      35  29  78 E7        30.51R WCI  29
LA VETA PASS   FAIR      36  28  75 MISG      30.63S
SAGUACHE       NOT AVBL
$$

COZ035-036-038>040-261000-
...NORTHERN COLORADO FRONT RANGE...

CITY           SKY/WX    TMP DP  RH WIND       PRES   REMARKS
DENVER INTL AP FAIR      49  29  46 SW10      30.42F
DMNS CITY PARK NOT AVBL
AURORA         CLEAR     45  31  56 S5        30.44F
FRONT RANGE AP NOT AVBL
ERIE MUNI ARPT FAIR      40  33  75 CALM      30.41F
BOULDER MUN AP FAIR      48  32  53 S3        30.41F
CENTENNIAL     FAIR      46  30  53 S9        30.44F
BROOMFIELD     FAIR      48  32  53 W3        30.43F
FORT COLLINS   FAIR      45  37  76 N5        30.42F
LONGMONT       FAIR      43  33  67 W3        30.43F
$$

COZ041-046-047-076>085-087-088-261000-
...PIKES PEAK/PALMER DIVIDE AND SOUTHERN FOOTHILLS...

CITY           SKY/WX    TMP DP  RH WIND       PRES   REMARKS
COLO. SPRINGS  FAIR      45  28  51 CALM      30.50F
A. F. ACADEMY  FAIR      33  27  79 N6        30.49F WCI  27
SCHRIEVER AFB  NOT AVBL
ELLICOTT       NOT AVBL
FALCON         FAIR      40  28  61 W7        30.51F
FORT CARSON    FAIR      48  29  47 SW5       30.47F
LIMON          FAIR      32  24  72 N6        30.45F WCI  26
MONUMENT HILL  FAIR      37  28  70 SW12      30.50F
TRINIDAD       FAIR      45  32  60 W13       30.47F
$$

COZ042>045-048>051-090-091-261000-
...NORTHEAST COLORADO...

CITY           SKY/WX    TMP DP  RH WIND       PRES   REMARKS
GREELEY ARPT   FAIR      39  34  81 N5        30.42F
AKRON          FAIR      45  31  58 S8        30.41F
BURLINGTON     FAIR      41  35  79 W7        30.40F
WRAY           FAIR      39  32  75 W6        30.39F
STERLING       FAIR      36  32  87 S3        30.39S
HOLYOKE        FAIR      39  34  81 W6        30.39S
FORT MORGAN    FAIR      41  30  64 W7        30.41F
$$

COZ086-089-092>099-261000-
...SOUTHEAST COLORADO...

CITY           SKY/WX    TMP DP  RH WIND       PRES   REMARKS
PUEBLO         FAIR      49  29  46 NE5       30.44F
LA JUNTA       FAIR      48  35  60 CALM      30.43F
LAMAR          FAIR      37  29  72 SW5       30.40S
SPRINGFIELD    NOT AVBL
$$



USA.gov is the U.S. government's official web portal to all federal, state and local government web resources and services.